"datetime","temp","dp","rain_mm","uv","solar","mb","wind_mph","gust_mph","windchill","rh"
"2020-02-22 00:00:00",9.5,7.1,0.0,0.0,0,1017.7,1,4,8.8,85
"2020-02-22 00:01:00",9.5,7.1,0.0,0.0,0,1017.7,7,12,6.8,85
"2020-02-22 00:02:00",9.5,7.1,0.0,0.0,0,1017.7,3,5,8.4,85
"2020-02-22 00:03:00",9.5,7.1,0.0,0.0,0,1017.7,3,5,8.4,85
"2020-02-22 00:04:00",9.4,7.0,0.0,0.0,0,1017.8,5,13,6.7,85
"2020-02-22 00:05:00",9.5,7.1,0.0,0.0,0,1017.7,5,10,7.2,85
"2020-02-22 00:06:00",9.5,7.1,0.0,0.0,0,1017.6,2,8,7.6,85
"2020-02-22 00:07:00",9.5,7.1,0.0,0.0,0,1017.7,5,15,6.2,85
"2020-02-22 00:08:00",9.4,7.0,0.0,0.0,0,1017.7,5,14,6.5,85
"2020-02-22 00:09:00",9.5,7.1,0.0,0.0,0,1017.7,3,5,8.3,85
"2020-02-22 00:10:00",9.5,7.1,0.0,0.0,0,1017.7,3,6,8.1,85
"2020-02-22 00:11:00",9.5,7.1,0.0,0.0,0,1017.7,1,3,"",85
"2020-02-22 00:12:00",9.4,7.0,0.0,0.0,0,1017.7,4,7,7.8,85
"2020-02-22 00:13:00",9.4,7.0,0.0,0.0,0,1017.8,2,4,8.7,85
"2020-02-22 00:14:00",9.4,7.0,0.0,0.0,0,1017.9,5,10,7.2,85
"2020-02-22 00:15:00",9.5,7.1,0.0,0.0,0,1017.7,3,6,8.1,85
"2020-02-22 00:16:00",9.5,7.1,0.0,0.0,0,1017.8,5,15,6.2,85
"2020-02-22 00:17:00",9.5,7.1,0.0,0.0,0,1017.8,5,14,6.4,85
"2020-02-22 00:18:00",9.5,7.1,0.0,0.0,0,1017.7,4,6,8.1,85
"2020-02-22 00:19:00",9.5,7.1,0.0,0.0,0,1017.7,3,7,7.8,85
"2020-02-22 00:20:00",9.5,7.1,0.0,0.0,0,1017.8,3,10,7.2,85
"2020-02-22 00:21:00",9.5,7.1,0.0,0.0,0,1017.9,7,12,6.8,85
"2020-02-22 00:22:00",9.5,7.1,0.0,0.0,0,1017.9,2,3,"",85
"2020-02-22 00:23:00",9.5,7.1,0.0,0.0,0,1018.0,3,7,7.8,85
"2020-02-22 00:24:00",9.5,7.1,0.0,0.0,0,1018.0,4,7,7.8,85
"2020-02-22 00:25:00",9.4,7.0,0.0,0.0,0,1017.9,2,7,7.8,85
"2020-02-22 00:26:00",9.5,7.1,0.0,0.0,0,1017.9,2,4,8.8,85
"2020-02-22 00:27:00",9.5,7.1,0.0,0.0,0,1017.9,2,5,8.5,85
"2020-02-22 00:28:00",9.6,7.2,0.0,0.0,0,1017.9,4,8,7.6,85
"2020-02-22 00:29:00",9.5,7.1,0.0,0.0,0,1017.8,4,10,7.2,85
"2020-02-22 00:30:00",9.5,7.1,0.0,0.0,0,1017.7,6,9,7.4,85
"2020-02-22 00:31:00",9.5,7.1,0.0,0.0,0,1017.7,4,8,7.7,85
"2020-02-22 00:32:00",9.5,7.1,0.0,0.0,0,1017.8,3,6,8.1,85
"2020-02-22 00:33:00",9.6,7.2,0.0,0.0,0,1017.7,2,3,"",85
"2020-02-22 00:34:00",9.6,7.2,0.0,0.0,0,1017.7,4,5,8.4,85
"2020-02-22 00:35:00",9.6,7.2,0.0,0.0,0,1017.5,5,10,7.3,85
"2020-02-22 00:36:00",9.6,7.4,0.0,0.0,0,1017.5,3,6,8.2,86
"2020-02-22 00:37:00",9.6,7.2,0.0,0.0,0,1017.4,3,6,8.2,85
"2020-02-22 00:38:00",9.6,7.2,0.0,0.0,0,1017.5,3,6,8.2,85
"2020-02-22 00:39:00",9.6,7.4,0.0,0.0,0,1017.3,5,18,6.1,86
"2020-02-22 00:40:00",9.5,7.1,0.0,0.0,0,1017.3,8,14,6.6,85
"2020-02-22 00:41:00",9.6,7.2,0.0,0.0,0,1017.2,4,6,8.1,85
"2020-02-22 00:42:00",9.6,7.2,0.0,0.0,0,1017.1,5,8,7.6,85
"2020-02-22 00:43:00",9.5,7.1,0.0,0.0,0,1017.0,6,16,6.2,85
"2020-02-22 00:44:00",9.6,7.2,0.0,0.0,0,1016.8,3,7,7.8,85
"2020-02-22 00:45:00",9.4,7.0,0.0,0.0,0,1017.0,5,11,7.0,85
"2020-02-22 00:46:00",9.4,7.0,0.0,0.0,0,1016.9,6,14,6.4,85
"2020-02-22 00:47:00",9.5,7.1,0.0,0.0,0,1016.9,3,6,8.1,85
"2020-02-22 00:48:00",9.4,7.0,0.0,0.0,0,1017.2,7,14,6.4,85
"2020-02-22 00:49:00",9.4,7.0,0.0,0.0,0,1017.0,5,9,7.2,85
"2020-02-22 00:50:00",9.4,7.0,0.0,0.0,0,1017.0,6,12,6.8,85
"2020-02-22 00:51:00",9.5,7.1,0.0,0.0,0,1017.1,5,12,6.7,85
"2020-02-22 00:52:00",9.5,7.1,0.0,0.0,0,1017.2,3,8,7.6,85
"2020-02-22 00:53:00",9.4,7.0,0.0,0.0,0,1017.3,8,13,6.7,85
"2020-02-22 00:54:00",9.5,7.1,0.0,0.0,0,1017.0,6,11,7.0,85
"2020-02-22 00:55:00",9.5,7.1,0.0,0.0,0,1017.1,5,12,6.7,85
"2020-02-22 00:56:00",9.4,7.0,0.0,0.0,0,1016.9,4,7,7.7,85
"2020-02-22 00:57:00",9.5,7.1,0.0,0.0,0,1016.8,7,12,6.7,85
"2020-02-22 00:58:00",9.5,7.1,0.0,0.0,0,1017.0,8,14,6.4,85
"2020-02-22 00:59:00",9.4,7.0,0.0,0.0,0,1016.9,5,7,7.7,85
"2020-02-22 01:00:00",9.4,7.0,0.0,0.0,0,1016.9,5,12,6.7,85
"2020-02-22 01:01:00",9.5,7.1,0.0,0.0,0,1017.0,7,10,7.0,85
"2020-02-22 01:02:00",9.5,7.1,0.0,0.0,0,1017.0,4,5,8.3,85
"2020-02-22 01:03:00",9.4,7.0,0.0,0.0,0,1017.1,4,8,7.5,85
"2020-02-22 01:04:00",9.4,7.0,0.0,0.0,0,1017.1,6,9,7.2,85
"2020-02-22 01:05:00",9.4,7.0,0.0,0.0,0,1017.0,4,7,7.7,85
"2020-02-22 01:06:00",9.4,7.0,0.0,0.0,0,1017.0,4,8,7.5,85
"2020-02-22 01:07:00",9.4,7.0,0.0,0.0,0,1016.9,3,6,8.0,85
"2020-02-22 01:08:00",9.4,7.0,0.0,0.0,0,1016.9,3,6,8.0,85
"2020-02-22 01:09:00",9.4,7.0,0.0,0.0,0,1016.9,3,6,8.0,85
"2020-02-22 01:10:00",9.4,7.0,0.0,0.0,0,1016.8,5,9,7.2,85
"2020-02-22 01:11:00",9.4,7.0,0.0,0.0,0,1016.8,8,17,6.0,85
"2020-02-22 01:12:00",9.4,7.0,0.0,0.0,0,1016.8,4,8,7.5,85
"2020-02-22 01:13:00",9.4,7.0,0.0,0.0,0,1016.9,2,6,8.0,85
"2020-02-22 01:14:00",9.4,7.0,0.0,0.0,0,1016.9,4,6,8.0,85
"2020-02-22 01:15:00",9.4,7.0,0.0,0.0,0,1016.8,5,9,7.2,85
"2020-02-22 01:16:00",9.4,7.0,0.0,0.0,0,1016.8,4,8,7.5,85
"2020-02-22 01:17:00",9.4,7.0,0.0,0.0,0,1016.7,5,8,7.5,85
"2020-02-22 01:18:00",9.4,7.0,0.0,0.0,0,1016.7,5,9,7.2,85
"2020-02-22 01:19:00",9.4,7.0,0.0,0.0,0,1016.7,4,7,7.7,85
"2020-02-22 01:20:00",9.4,7.0,0.0,0.0,0,1016.7,3,6,8.0,85
"2020-02-22 01:21:00",9.4,7.0,0.0,0.0,0,1016.6,5,9,7.2,85
"2020-02-22 01:22:00",9.4,7.0,0.0,0.0,0,1016.8,6,16,6.1,85
"2020-02-22 01:23:00",9.4,7.0,0.0,0.0,0,1016.7,5,8,7.5,85
"2020-02-22 01:24:00",9.4,7.2,0.0,0.0,0,1016.7,5,12,6.7,86
"2020-02-22 01:25:00",9.4,7.2,0.0,0.0,0,1016.7,5,10,7.0,86
"2020-02-22 01:26:00",9.4,7.2,0.0,0.0,0,1016.8,5,15,6.2,86
"2020-02-22 01:27:00",9.4,7.2,0.0,0.0,0,1016.7,7,15,6.2,86
"2020-02-22 01:28:00",9.4,7.2,0.0,0.0,0,1016.7,4,11,6.9,86
"2020-02-22 01:29:00",9.4,7.2,0.0,0.0,0,1016.8,4,7,7.7,86
"2020-02-22 01:30:00",9.4,7.2,0.0,0.0,0,1016.7,2,4,8.7,86
"2020-02-22 01:31:00",9.4,7.2,0.0,0.0,0,1016.7,3,5,8.3,86
"2020-02-22 01:32:00",9.4,7.2,0.0,0.0,0,1016.8,6,16,6.1,86
"2020-02-22 01:33:00",9.4,7.2,0.0,0.0,0,1016.8,5,10,7.0,86
"2020-02-22 01:34:00",9.4,7.2,0.0,0.0,0,1016.7,7,16,6.1,86
"2020-02-22 01:35:00",9.4,7.2,0.0,0.0,0,1016.6,5,8,7.5,86
"2020-02-22 01:36:00",9.4,7.2,0.0,0.0,0,1016.6,5,11,6.9,86
"2020-02-22 01:37:00",9.4,7.2,0.0,0.0,0,1016.5,6,10,7.0,86
"2020-02-22 01:38:00",9.4,7.2,0.0,0.0,0,1016.5,4,9,7.2,86
"2020-02-22 01:39:00",9.4,7.2,0.0,0.0,0,1016.4,6,10,7.0,86
"2020-02-22 01:40:00",9.4,7.2,0.0,0.0,0,1016.3,3,8,7.5,86
"2020-02-22 01:41:00",9.4,7.2,0.0,0.0,0,1016.3,4,7,7.7,86
"2020-02-22 01:42:00",9.4,7.2,0.0,0.0,0,1016.3,3,7,7.7,86
"2020-02-22 01:43:00",9.4,7.2,0.0,0.0,0,1016.4,4,6,8.0,86
"2020-02-22 01:44:00",9.4,7.2,0.0,0.0,0,1016.3,3,7,7.7,86
"2020-02-22 01:45:00",9.4,7.2,0.0,0.0,0,1016.4,3,6,8.0,86
"2020-02-22 01:46:00",9.4,7.2,0.0,0.0,0,1016.4,2,4,8.7,86
"2020-02-22 01:47:00",9.4,7.2,0.0,0.0,0,1016.3,3,7,7.7,86
"2020-02-22 01:48:00",9.4,7.2,0.0,0.0,0,1016.3,3,11,6.9,86
"2020-02-22 01:49:00",9.4,7.2,0.0,0.0,0,1016.4,3,7,7.7,86
"2020-02-22 01:50:00",9.4,7.2,0.0,0.0,0,1016.3,4,9,7.2,86
"2020-02-22 01:51:00",9.4,7.2,0.0,0.0,0,1016.3,3,8,7.5,86
"2020-02-22 01:52:00",9.4,7.2,0.0,0.0,0,1016.3,5,8,7.5,86
"2020-02-22 01:53:00",9.4,7.2,0.0,0.0,0,1016.1,3,6,8.0,86
"2020-02-22 01:54:00",9.4,7.2,0.0,0.0,0,1016.2,2,7,7.7,86
"2020-02-22 01:55:00",9.4,7.2,0.0,0.0,0,1016.4,4,8,7.5,86
"2020-02-22 01:56:00",9.4,7.2,0.0,0.0,0,1016.3,6,11,6.9,86
"2020-02-22 01:57:00",9.4,7.2,0.0,0.0,0,1016.2,8,13,6.5,86
"2020-02-22 01:58:00",9.4,7.2,0.0,0.0,0,1016.3,2,4,8.7,86
"2020-02-22 01:59:00",9.4,7.2,0.0,0.0,0,1016.3,7,14,6.4,86
"2020-02-22 02:00:00",9.4,7.2,0.0,0.0,0,1016.4,5,8,7.5,86
"2020-02-22 02:01:00",9.4,7.2,0.0,0.0,0,1016.3,2,15,6.2,86
"2020-02-22 02:02:00",9.4,7.2,0.0,0.0,0,1016.3,7,15,6.2,86
"2020-02-22 02:03:00",9.4,7.2,0.0,0.0,0,1016.3,3,9,7.2,86
"2020-02-22 02:04:00",9.4,7.2,0.0,0.0,0,1016.4,4,12,6.7,86
"2020-02-22 02:05:00",9.4,7.2,0.0,0.0,0,1016.4,5,11,6.9,86
"2020-02-22 02:06:00",9.4,7.2,0.0,0.0,0,1016.3,4,8,7.5,86
"2020-02-22 02:07:00",9.4,7.2,0.0,0.0,0,1016.3,8,18,5.9,86
"2020-02-22 02:08:00",9.4,7.2,0.0,0.0,0,1016.3,7,18,5.9,86
"2020-02-22 02:09:00",9.4,7.2,0.0,0.0,0,1016.3,3,9,7.2,86
"2020-02-22 02:10:00",9.4,7.2,0.0,0.0,0,1016.3,5,11,6.9,86
"2020-02-22 02:11:00",9.4,7.2,0.0,0.0,0,1016.2,7,12,6.7,86
"2020-02-22 02:12:00",9.5,7.3,0.0,0.0,0,1016.2,3,6,8.0,86
"2020-02-22 02:13:00",9.4,7.2,0.0,0.0,0,1016.2,4,6,8.0,86
"2020-02-22 02:14:00",9.5,7.3,0.0,0.0,0,1016.3,6,12,6.8,86
"2020-02-22 02:15:00",9.5,7.3,0.0,0.0,0,1016.1,3,7,7.7,86
"2020-02-22 02:16:00",9.5,7.3,0.0,0.0,0,1016.2,4,6,8.1,86
"2020-02-22 02:17:00",9.5,7.3,0.0,0.0,0,1016.1,4,5,8.3,86
"2020-02-22 02:18:00",9.5,7.3,0.0,0.0,0,1016.2,3,5,8.4,86
"2020-02-22 02:19:00",9.4,7.2,0.0,0.0,0,1016.2,4,8,7.6,86
"2020-02-22 02:20:00",9.5,7.3,0.0,0.0,0,1016.1,2,8,7.6,86
"2020-02-22 02:21:00",9.5,7.3,0.0,0.0,0,1016.2,4,8,7.6,86
"2020-02-22 02:22:00",9.5,7.3,0.0,0.0,0,1016.1,5,10,7.2,86
"2020-02-22 02:23:00",9.5,7.3,0.0,0.0,0,1016.2,4,6,8.1,86
"2020-02-22 02:24:00",9.5,7.3,0.0,0.0,0,1016.3,2,6,8.1,86
"2020-02-22 02:25:00",9.5,7.3,0.0,0.0,0,1016.1,6,9,7.4,86
"2020-02-22 02:26:00",9.5,7.3,0.0,0.0,0,1016.3,8,15,6.4,86
"2020-02-22 02:27:00",9.5,7.3,0.0,0.0,0,1016.1,6,11,7.0,86
"2020-02-22 02:28:00",9.5,7.3,0.0,0.0,0,1016.1,6,13,6.7,86
"2020-02-22 02:29:00",9.6,7.4,0.0,0.0,0,1016.2,7,16,6.2,86
"2020-02-22 02:30:00",9.5,7.3,0.0,0.0,0,1016.2,3,5,8.4,86
"2020-02-22 02:31:00",9.6,7.4,0.0,0.0,0,1016.3,4,7,7.8,86
"2020-02-22 02:32:00",9.6,7.4,0.0,0.0,0,1016.1,4,7,7.9,86
"2020-02-22 02:33:00",9.6,7.4,0.0,0.0,0,1016.3,3,6,8.2,86
"2020-02-22 02:34:00",9.6,7.4,0.0,0.0,0,1016.3,6,12,6.9,86
"2020-02-22 02:35:00",9.6,7.4,0.0,0.0,0,1016.3,3,6,8.2,86
"2020-02-22 02:36:00",9.6,7.4,0.0,0.0,0,1016.3,5,11,7.1,86
"2020-02-22 02:37:00",9.6,7.4,0.0,0.0,0,1016.3,2,6,8.2,86
"2020-02-22 02:38:00",9.6,7.4,0.0,0.0,0,1016.2,5,9,7.5,86
"2020-02-22 02:39:00",9.6,7.4,0.0,0.0,0,1016.4,7,20,5.9,86
"2020-02-22 02:40:00",9.6,7.4,0.0,0.0,0,1016.2,3,7,7.9,86
"2020-02-22 02:41:00",9.6,7.4,0.0,0.0,0,1016.3,3,15,6.5,86
"2020-02-22 02:42:00",9.6,7.4,0.0,0.0,0,1016.1,5,10,7.3,86
"2020-02-22 02:43:00",9.6,7.4,0.0,0.0,0,1016.1,6,12,6.9,86
"2020-02-22 02:44:00",9.6,7.4,0.0,0.0,0,1016.2,4,6,8.2,86
"2020-02-22 02:45:00",9.6,7.4,0.0,0.0,0,1016.1,5,8,7.7,86
"2020-02-22 02:46:00",9.6,7.4,0.0,0.0,0,1016.1,2,5,8.5,86
"2020-02-22 02:47:00",9.6,7.4,0.0,0.0,0,1016.0,3,6,8.2,86
"2020-02-22 02:48:00",9.6,7.4,0.0,0.0,0,1015.9,4,8,7.7,86
"2020-02-22 02:49:00",9.6,7.4,0.0,0.0,0,1015.8,4,8,7.7,86
"2020-02-22 02:50:00",9.6,7.4,0.0,0.0,0,1015.8,5,8,7.7,86
"2020-02-22 02:51:00",9.6,7.4,0.0,0.0,0,1015.8,3,7,7.9,86
"2020-02-22 02:52:00",9.6,7.4,0.0,0.0,0,1015.8,6,12,6.9,86
"2020-02-22 02:53:00",9.6,7.4,0.0,0.0,0,1015.8,4,9,7.5,86
"2020-02-22 02:54:00",9.6,7.4,0.0,0.0,0,1015.8,4,9,7.5,86
"2020-02-22 02:55:00",9.6,7.4,0.0,0.0,0,1015.7,7,14,6.6,86
"2020-02-22 02:56:00",9.6,7.4,0.0,0.0,0,1015.8,5,12,6.9,86
"2020-02-22 02:57:00",9.6,7.4,0.0,0.0,0,1015.9,7,16,6.4,86
"2020-02-22 02:58:00",9.6,7.4,0.0,0.0,0,1015.8,3,9,7.5,86
"2020-02-22 02:59:00",9.6,7.4,0.0,0.0,0,1015.8,4,7,7.9,86
"2020-02-22 03:00:00",9.6,7.4,0.0,0.0,0,1015.7,4,6,8.2,86
"2020-02-22 03:01:00",9.6,7.4,0.0,0.0,0,1015.7,4,8,7.6,86
"2020-02-22 03:02:00",9.6,7.4,0.0,0.0,0,1015.6,4,6,8.2,86
"2020-02-22 03:03:00",9.6,7.4,0.0,0.0,0,1015.5,5,10,7.3,86
"2020-02-22 03:04:00",9.5,7.3,0.0,0.0,0,1015.6,3,4,8.9,86
"2020-02-22 03:05:00",9.5,7.3,0.0,0.0,0,1015.6,4,7,7.8,86
"2020-02-22 03:06:00",9.5,7.3,0.0,0.0,0,1015.5,5,11,7.0,86
"2020-02-22 03:07:00",9.5,7.3,0.0,0.0,0,1015.5,4,9,7.4,86
"2020-02-22 03:08:00",9.4,7.2,0.0,0.0,0,1015.5,5,9,7.2,86
"2020-02-22 03:09:00",9.4,7.2,0.0,0.0,0,1015.6,5,9,7.2,86
"2020-02-22 03:10:00",9.4,7.2,0.0,0.0,0,1015.4,6,10,7.0,86
"2020-02-22 03:11:00",9.5,7.3,0.0,0.0,0,1015.5,4,9,7.4,86
"2020-02-22 03:12:00",9.4,7.2,0.0,0.0,0,1015.6,5,9,7.2,86
"2020-02-22 03:13:00",9.5,7.3,0.0,0.0,0,1015.5,4,7,7.7,86
"2020-02-22 03:14:00",9.5,7.3,0.0,0.0,0,1015.4,4,9,7.2,86
"2020-02-22 03:15:00",9.5,7.3,0.0,0.0,0,1015.3,7,20,5.8,86
"2020-02-22 03:16:00",9.4,7.2,0.0,0.0,0,1015.1,7,20,5.8,86
"2020-02-22 03:17:00",9.4,7.2,0.0,0.0,0,1015.5,4,7,7.7,86
"2020-02-22 03:18:00",9.5,7.3,0.0,0.0,0,1015.4,6,11,6.9,86
"2020-02-22 03:19:00",9.5,7.3,0.0,0.0,0,1015.5,4,8,7.6,86
"2020-02-22 03:20:00",9.4,7.2,0.0,0.0,0,1015.4,4,7,7.7,86
"2020-02-22 03:21:00",9.4,7.2,0.0,0.0,0,1015.5,7,15,6.2,86
"2020-02-22 03:22:00",9.5,7.3,0.0,0.0,0,1015.7,5,12,6.7,86
"2020-02-22 03:23:00",9.5,7.3,0.0,0.0,0,1015.7,5,10,7.2,86
"2020-02-22 03:24:00",9.5,7.3,0.0,0.0,0,1015.7,2,5,8.4,86
"2020-02-22 03:25:00",9.5,7.3,0.0,0.0,0,1015.8,5,8,7.6,86
"2020-02-22 03:26:00",9.6,7.2,0.0,0.0,0,1015.8,4,7,7.8,85
"2020-02-22 03:27:00",9.5,7.1,0.0,0.0,0,1015.9,4,7,7.8,85
"2020-02-22 03:28:00",9.6,7.2,0.0,0.0,0,1015.9,5,10,7.2,85
"2020-02-22 03:29:00",9.6,7.2,0.0,0.0,0,1015.7,6,9,7.5,85
"2020-02-22 03:30:00",9.5,7.1,0.0,0.0,0,1015.6,7,15,6.4,85
"2020-02-22 03:31:00",9.6,7.2,0.0,0.0,0,1015.5,6,14,6.5,85
"2020-02-22 03:32:00",9.6,7.2,0.0,0.0,0,1015.7,8,16,6.4,85
"2020-02-22 03:33:00",9.6,7.2,0.0,0.0,0,1015.8,7,13,6.8,85
"2020-02-22 03:34:00",9.6,7.2,0.0,0.0,0,1015.9,8,11,7.1,85
"2020-02-22 03:35:00",9.6,7.4,0.0,0.0,0,1015.8,5,7,7.9,86
"2020-02-22 03:36:00",9.6,7.2,0.0,0.0,0,1015.7,3,6,8.2,85
"2020-02-22 03:37:00",9.6,7.2,0.0,0.0,0,1015.8,4,7,7.9,85
"2020-02-22 03:38:00",9.6,7.2,0.0,0.0,0,1015.7,6,12,6.9,85
"2020-02-22 03:39:00",9.6,7.2,0.0,0.0,0,1015.7,4,6,8.2,85
"2020-02-22 03:40:00",9.6,7.2,0.0,0.0,0,1015.7,3,6,8.2,85
"2020-02-22 03:41:00",9.6,7.2,0.0,0.0,0,1015.7,3,7,8.1,85
"2020-02-22 03:42:00",9.6,7.2,0.0,0.0,0,1015.7,4,7,8.1,85
"2020-02-22 03:43:00",9.7,7.3,0.0,0.0,0,1015.7,5,8,7.8,85
"2020-02-22 03:44:00",9.7,7.3,0.0,0.0,0,1015.6,7,12,7.1,85
"2020-02-22 03:45:00",9.7,7.3,0.0,0.0,0,1015.6,4,10,7.4,85
"2020-02-22 03:46:00",9.7,7.3,0.0,0.0,0,1015.5,3,6,8.3,85
"2020-02-22 03:48:00",9.7,7.5,0.0,0.0,0,1015.3,6,8,7.8,86
"2020-02-22 03:49:00",9.7,7.3,0.0,0.0,0,1015.2,3,5,8.6,85
"2020-02-22 03:50:00",9.7,7.3,0.0,0.0,0,1015.3,4,6,8.3,85
"2020-02-22 03:51:00",9.7,7.3,0.0,0.0,0,1015.4,3,4,9.0,85
"2020-02-22 03:52:00",9.7,7.3,0.0,0.0,0,1015.5,4,6,8.3,85
"2020-02-22 03:53:00",9.7,7.3,0.0,0.0,0,1015.4,4,6,8.3,85
"2020-02-22 03:54:00",9.7,7.3,0.0,0.0,0,1015.4,6,12,7.1,85
"2020-02-22 03:55:00",9.7,7.3,0.0,0.0,0,1015.4,5,7,8.1,85
"2020-02-22 03:56:00",9.7,7.3,0.0,0.0,0,1015.4,4,9,7.6,85
"2020-02-22 03:57:00",9.7,7.3,0.0,0.0,0,1015.4,5,17,6.4,85
"2020-02-22 03:58:00",9.7,7.3,0.0,0.0,0,1015.4,5,12,7.1,85
"2020-02-22 03:59:00",9.7,7.3,0.0,0.0,0,1015.7,3,5,8.6,85
"2020-02-22 04:00:00",9.7,7.3,0.0,0.0,0,1015.7,2,4,9.0,85
"2020-02-22 04:01:00",9.7,7.3,0.0,0.0,0,1015.7,3,5,8.6,85
"2020-02-22 04:02:00",9.7,7.5,0.0,0.0,0,1015.7,5,12,7.1,86
"2020-02-22 04:03:00",9.7,7.3,0.0,0.0,0,1015.6,4,6,8.3,85
"2020-02-22 04:04:00",9.7,7.5,0.0,0.0,0,1015.6,8,14,6.8,86
"2020-02-22 04:05:00",9.7,7.3,0.0,0.0,0,1015.5,4,6,8.3,85
"2020-02-22 04:06:00",9.7,7.3,0.0,0.0,0,1015.3,4,7,8.1,85
"2020-02-22 04:07:00",9.7,7.3,0.0,0.0,0,1015.3,7,18,6.3,85
"2020-02-22 04:08:00",9.7,7.3,0.0,0.0,0,1015.1,5,12,7.1,85
"2020-02-22 04:09:00",9.8,7.4,0.0,0.0,0,1014.9,6,10,7.4,85
"2020-02-22 04:10:00",9.8,7.4,0.0,0.0,0,1014.8,3,7,8.2,85
"2020-02-22 04:11:00",9.8,7.4,0.0,0.0,0,1014.9,2,3,"",85
"2020-02-22 04:12:00",9.8,7.4,0.0,0.0,0,1014.9,2,4,9.1,85
"2020-02-22 04:13:00",9.8,7.4,0.0,0.0,0,1014.9,6,12,7.2,85
"2020-02-22 04:14:00",9.8,7.4,0.0,0.0,0,1014.9,4,6,8.5,85
"2020-02-22 04:15:00",9.8,7.4,0.0,0.0,0,1014.9,6,14,6.9,85
"2020-02-22 04:16:00",9.8,7.4,0.0,0.0,0,1014.8,4,7,8.2,85
"2020-02-22 04:17:00",9.9,7.5,0.0,0.0,0,1015.0,4,7,8.2,85
"2020-02-22 04:18:00",9.9,7.5,0.0,0.0,0,1015.0,4,8,7.9,85
"2020-02-22 04:19:00",9.9,7.5,0.0,0.0,0,1015.0,5,7,8.2,85
"2020-02-22 04:20:00",9.9,7.7,0.0,0.0,0,1015.0,2,3,"",86
"2020-02-22 04:21:00",9.8,7.6,0.0,0.0,0,1015.3,4,10,7.7,86
"2020-02-22 04:22:00",9.9,7.7,0.0,0.0,0,1015.4,7,10,7.7,86
"2020-02-22 04:23:00",9.9,7.7,0.0,0.0,0,1015.3,4,7,8.3,86
"2020-02-22 04:24:00",9.9,7.7,0.0,0.0,0,1015.4,6,10,7.7,86
"2020-02-22 04:25:00",9.9,7.7,0.0,0.0,0,1015.4,4,6,8.6,86
"2020-02-22 04:26:00",9.9,7.7,0.0,0.0,0,1015.4,3,8,8.1,86
"2020-02-22 04:27:00",9.9,7.7,0.0,0.0,0,1015.3,2,5,8.9,86
"2020-02-22 04:28:00",9.9,7.7,0.0,0.0,0,1015.4,2,4,9.2,86
"2020-02-22 04:29:00",9.9,7.7,0.0,0.0,0,1015.3,4,8,8.1,86
"2020-02-22 04:30:00",9.9,7.7,0.0,0.0,0,1015.3,5,17,6.6,86
"2020-02-22 04:31:00",9.9,7.7,0.0,0.0,0,1015.4,3,10,7.7,86
"2020-02-22 04:32:00",9.9,7.7,0.0,0.0,0,1015.3,2,5,8.9,86
"2020-02-22 04:33:00",9.9,7.7,0.0,0.0,0,1015.2,4,10,7.7,86
"2020-02-22 04:34:00",9.9,7.7,0.0,0.0,0,1015.2,4,7,8.3,86
"2020-02-22 04:35:00",9.9,7.7,0.0,0.0,0,1015.0,3,8,8.1,86
"2020-02-22 04:36:00",9.9,7.7,0.0,0.0,0,1014.9,3,8,8.1,86
"2020-02-22 04:37:00",9.9,7.7,0.0,0.0,0,1015.1,3,9,7.9,86
"2020-02-22 04:38:00",9.9,7.7,0.0,0.0,0,1015.1,6,11,7.5,86
"2020-02-22 04:39:00",9.9,7.7,0.0,0.0,0,1014.9,3,6,8.6,86
"2020-02-22 04:40:00",9.9,7.7,0.0,0.0,0,1014.9,5,11,7.5,86
"2020-02-22 04:41:00",9.9,7.7,0.0,0.0,0,1014.9,4,7,8.3,86
"2020-02-22 04:42:00",10.0,7.8,0.0,0.0,0,1014.9,6,15,7.0,86
"2020-02-22 04:43:00",10.0,7.8,0.0,0.0,0,1015.0,3,5,9.0,86
"2020-02-22 04:44:00",10.0,7.8,0.0,0.0,0,1015.0,2,4,9.4,86
"2020-02-22 04:45:00",10.0,7.8,0.0,0.0,0,1015.1,2,5,9.0,86
"2020-02-22 04:46:00",10.0,7.8,0.0,0.0,0,1015.2,3,5,9.0,86
"2020-02-22 04:47:00",10.0,7.8,0.0,0.0,0,1015.1,2,6,8.7,86
"2020-02-22 04:48:00",10.0,7.8,0.0,0.0,0,1015.0,4,9,8.0,86
"2020-02-22 04:49:00",10.0,7.8,0.0,0.0,0,1015.1,2,9,8.0,86
"2020-02-22 04:50:00",10.0,7.8,0.0,0.0,0,1015.1,4,11,7.6,86
"2020-02-22 04:51:00",10.0,7.8,0.0,0.0,0,1015.2,3,5,9.0,86
"2020-02-22 04:52:00",10.0,7.8,0.0,0.0,0,1015.3,3,8,8.2,86
"2020-02-22 04:53:00",10.0,7.8,0.0,0.0,0,1015.2,6,13,7.3,86
"2020-02-22 04:54:00",10.0,7.9,0.0,0.0,0,1015.4,4,9,8.0,87
"2020-02-22 04:55:00",10.1,8.0,0.0,0.0,0,1015.4,5,9,"",87
"2020-02-22 04:56:00",10.1,8.0,0.0,0.0,0,1015.4,5,10,"",87
"2020-02-22 04:57:00",10.1,8.0,0.0,0.0,0,1015.4,5,15,"",87
"2020-02-22 04:58:00",10.1,8.0,0.0,0.0,0,1015.5,8,17,"",87
"2020-02-22 04:59:00",10.1,8.0,0.0,0.0,0,1015.4,4,10,"",87
"2020-02-22 05:00:00",10.1,8.0,0.0,0.0,0,1015.5,3,6,"",87
"2020-02-22 05:01:00",10.1,8.0,0.0,0.0,0,1015.5,3,5,"",87
"2020-02-22 05:02:00",10.1,8.0,0.0,0.0,0,1015.5,3,7,"",87
"2020-02-22 05:03:00",10.1,8.0,0.0,0.0,0,1015.4,2,7,"",87
"2020-02-22 05:04:00",10.1,8.0,0.0,0.0,0,1015.5,1,10,"",87
"2020-02-22 05:05:00",10.1,8.0,0.0,0.0,0,1015.4,4,7,"",87
"2020-02-22 05:06:00",10.1,8.0,0.0,0.0,0,1015.5,4,7,"",87
"2020-02-22 05:07:00",10.1,8.0,0.0,0.0,0,1015.5,2,6,"",87
"2020-02-22 05:08:00",10.1,8.0,0.0,0.0,0,1015.5,2,4,"",87
"2020-02-22 05:09:00",10.1,8.0,0.0,0.0,0,1015.5,3,7,"",87
"2020-02-22 05:10:00",10.1,8.0,0.0,0.0,0,1015.5,4,8,"",87
"2020-02-22 05:11:00",10.1,8.0,0.0,0.0,0,1015.7,3,11,"",87
"2020-02-22 05:12:00",10.1,8.0,0.0,0.0,0,1015.4,2,7,"",87
"2020-02-22 05:13:00",10.1,8.0,0.0,0.0,0,1015.5,3,6,"",87
"2020-02-22 05:14:00",10.2,8.1,0.0,0.0,0,1015.5,2,5,"",87
"2020-02-22 05:15:00",10.1,8.0,0.0,0.0,0,1015.6,2,7,"",87
"2020-02-22 05:16:00",10.1,8.0,0.0,0.0,0,1015.7,2,7,"",87
"2020-02-22 05:17:00",10.1,8.0,0.0,0.0,0,1015.8,6,8,"",87
"2020-02-22 05:18:00",10.1,8.0,0.0,0.0,0,1015.8,5,11,"",87
"2020-02-22 05:19:00",10.2,8.1,0.0,0.0,0,1015.7,6,19,"",87
"2020-02-22 05:20:00",10.2,8.1,0.0,0.0,0,1015.8,3,8,"",87
"2020-02-22 05:21:00",10.2,8.1,0.0,0.0,0,1015.8,4,11,"",87
"2020-02-22 05:22:00",10.2,8.1,0.0,0.0,0,1015.8,5,9,"",87
"2020-02-22 05:23:00",10.2,8.1,0.0,0.0,0,1015.9,2,4,"",87
"2020-02-22 05:24:00",10.2,8.1,0.0,0.0,0,1016.0,4,9,"",87
"2020-02-22 05:25:00",10.2,8.1,0.0,0.0,0,1016.0,4,10,"",87
"2020-02-22 05:26:00",10.2,8.1,0.0,0.0,0,1016.0,2,5,"",87
"2020-02-22 05:27:00",10.2,8.1,0.0,0.0,0,1016.0,3,5,"",87
"2020-02-22 05:28:00",10.2,8.1,0.0,0.0,0,1016.0,2,4,"",87
"2020-02-22 05:29:00",10.2,8.1,0.0,0.0,0,1016.0,2,5,"",87
"2020-02-22 05:30:00",10.2,8.1,0.0,0.0,0,1015.8,2,4,"",87
"2020-02-22 05:31:00",10.2,8.1,0.0,0.0,0,1015.6,2,3,"",87
"2020-02-22 05:32:00",10.2,8.1,0.0,0.0,0,1015.3,4,9,"",87
"2020-02-22 05:33:00",10.2,8.1,0.0,0.0,0,1015.3,5,11,"",87
"2020-02-22 05:34:00",10.2,8.1,0.0,0.0,0,1015.3,2,4,"",87
"2020-02-22 05:35:00",10.2,8.1,0.0,0.0,0,1015.3,4,8,"",87
"2020-02-22 05:36:00",10.2,8.1,0.0,0.0,0,1015.4,5,19,"",87
"2020-02-22 05:37:00",10.2,8.3,0.0,0.0,0,1015.5,3,9,"",88
"2020-02-22 05:38:00",10.2,8.3,0.0,0.0,0,1015.4,2,5,"",88
"2020-02-22 05:39:00",10.2,8.3,0.0,0.0,0,1015.5,3,7,"",88
"2020-02-22 05:40:00",10.2,8.3,0.0,0.0,0,1015.5,4,12,"",88
"2020-02-22 05:41:00",10.2,8.3,0.0,0.0,0,1015.3,4,6,"",88
"2020-02-22 05:42:00",10.2,8.3,0.0,0.0,0,1015.3,3,5,"",88
"2020-02-22 05:43:00",10.2,8.3,0.0,0.0,0,1015.3,2,9,"",88
"2020-02-22 05:44:00",10.2,8.3,0.0,0.0,0,1015.5,3,7,"",88
"2020-02-22 05:45:00",10.2,8.3,0.0,0.0,0,1015.4,2,4,"",88
"2020-02-22 05:46:00",10.2,8.3,0.0,0.0,0,1015.4,2,5,"",88
"2020-02-22 05:47:00",10.2,8.3,0.0,0.0,0,1015.4,3,8,"",88
"2020-02-22 05:48:00",10.2,8.3,0.0,0.0,0,1015.2,3,9,"",88
"2020-02-22 05:49:00",10.2,8.3,0.0,0.0,0,1015.3,0,0,"",88
"2020-02-22 05:50:00",10.2,8.3,0.0,0.0,0,1015.3,1,5,"",88
"2020-02-22 05:51:00",10.2,8.3,0.0,0.0,0,1015.1,1,6,"",88
"2020-02-22 05:52:00",10.2,8.3,0.0,0.0,0,1015.2,2,6,"",88
"2020-02-22 05:53:00",10.2,8.3,0.0,0.0,0,1015.3,3,7,"",88
"2020-02-22 05:54:00",10.2,8.5,0.0,0.0,0,1015.2,6,17,"",89
"2020-02-22 05:55:00",10.2,8.5,0.0,0.0,0,1015.3,1,5,"",89
"2020-02-22 05:56:00",10.2,8.5,0.0,0.0,0,1015.4,1,4,"",89
"2020-02-22 05:57:00",10.2,8.5,0.0,0.0,0,1015.4,4,8,"",89
"2020-02-22 05:58:00",10.2,8.5,0.0,0.0,0,1015.4,2,6,"",89
"2020-02-22 05:59:00",10.2,8.5,0.0,0.0,0,1015.4,1,5,"",89
"2020-02-22 06:00:00",10.2,8.5,0.0,0.0,0,1015.2,0,2,"",89
"2020-02-22 06:01:00",10.2,8.5,0.0,0.0,0,1015.3,1,3,"",89
"2020-02-22 06:02:00",10.1,8.4,0.0,0.0,0,1015.3,0,3,"",89
"2020-02-22 06:03:00",10.2,8.5,0.0,0.0,0,1015.4,2,9,"",89
"2020-02-22 06:04:00",10.1,8.4,0.0,0.0,0,1015.3,5,10,"",89
"2020-02-22 06:05:00",10.2,8.5,0.0,0.0,0,1015.2,3,11,"",89
"2020-02-22 06:06:00",10.2,8.5,0.0,0.0,0,1015.3,5,7,"",89
"2020-02-22 06:07:00",10.2,8.5,0.0,0.0,0,1015.3,1,3,"",89
"2020-02-22 06:08:00",10.2,8.5,0.0,0.0,0,1015.3,6,12,"",89
"2020-02-22 06:09:00",10.2,8.5,0.0,0.0,0,1015.2,3,6,"",89
"2020-02-22 06:10:00",10.2,8.5,0.0,0.0,0,1015.0,8,17,"",89
"2020-02-22 06:11:00",10.2,8.5,0.0,0.0,0,1015.2,3,7,"",89
"2020-02-22 06:12:00",10.2,8.5,0.0,0.0,0,1015.0,4,14,"",89
"2020-02-22 06:13:00",10.2,8.5,0.0,0.0,0,1014.9,4,8,"",89
"2020-02-22 06:14:00",10.2,8.5,0.0,0.0,0,1015.0,3,11,"",89
"2020-02-22 06:15:00",10.2,8.5,0.0,0.0,0,1015.1,5,8,"",89
"2020-02-22 06:16:00",10.2,8.5,0.0,0.0,0,1015.0,3,6,"",89
"2020-02-22 06:17:00",10.2,8.5,0.0,0.0,0,1015.1,2,8,"",89
"2020-02-22 06:18:00",10.2,8.5,0.0,0.0,0,1015.2,6,12,"",89
"2020-02-22 06:19:00",10.2,8.5,0.0,0.0,0,1015.2,2,5,"",89
"2020-02-22 06:20:00",10.2,8.5,0.0,0.0,0,1015.1,2,4,"",89
"2020-02-22 06:21:00",10.2,8.5,0.0,0.0,0,1015.2,4,10,"",89
"2020-02-22 06:22:00",10.2,8.5,0.0,0.0,0,1015.3,3,9,"",89
"2020-02-22 06:23:00",10.2,8.5,0.0,0.0,0,1015.2,7,13,"",89
"2020-02-22 06:24:00",10.2,8.5,0.0,0.0,0,1015.2,6,14,"",89
"2020-02-22 06:25:00",10.2,8.5,0.0,0.0,0,1015.1,4,10,"",89
"2020-02-22 06:26:00",10.2,8.5,0.0,0.0,0,1015.4,4,7,"",89
"2020-02-22 06:27:00",10.3,8.6,0.0,0.0,0,1015.4,4,11,"",89
"2020-02-22 06:28:00",10.3,8.6,0.0,0.0,0,1015.4,1,3,"",89
"2020-02-22 06:29:00",10.3,8.6,0.0,0.0,0,1015.3,3,8,"",89
"2020-02-22 06:30:00",10.3,8.6,0.0,0.0,0,1015.4,4,8,"",89
"2020-02-22 06:31:00",10.3,8.6,0.0,0.0,0,1015.3,4,8,"",89
"2020-02-22 06:32:00",10.3,8.6,0.0,0.0,0,1015.3,3,7,"",89
"2020-02-22 06:33:00",10.3,8.6,0.0,0.0,0,1015.3,2,4,"",89
"2020-02-22 06:34:00",10.3,8.6,0.0,0.0,0,1015.3,3,15,"",89
"2020-02-22 06:35:00",10.3,8.6,0.0,0.0,0,1015.2,3,9,"",89
"2020-02-22 06:36:00",10.3,8.6,0.0,0.0,0,1015.2,5,7,"",89
"2020-02-22 06:37:00",10.3,8.6,0.0,0.0,0,1015.1,5,8,"",89
"2020-02-22 06:38:00",10.3,8.6,0.0,0.0,0,1015.0,5,13,"",89
"2020-02-22 06:39:00",10.3,8.6,0.0,0.0,0,1015.1,1,7,"",89
"2020-02-22 06:40:00",10.3,8.6,0.0,0.0,0,1015.0,3,7,"",89
"2020-02-22 06:41:00",10.3,8.6,0.0,0.0,0,1015.0,7,12,"",89
"2020-02-22 06:42:00",10.3,8.6,0.0,0.0,0,1015.1,3,8,"",89
"2020-02-22 06:43:00",10.3,8.6,0.0,0.0,0,1015.2,3,6,"",89
"2020-02-22 06:44:00",10.3,8.6,0.0,0.0,0,1015.2,2,8,"",89
"2020-02-22 06:45:00",10.4,8.7,0.0,0.0,0,1015.3,6,10,"",89
"2020-02-22 06:46:00",10.3,8.7,0.0,0.0,0,1015.3,3,6,"",90
"2020-02-22 06:47:00",10.4,8.8,0.0,0.0,0,1015.1,5,10,"",90
"2020-02-22 06:48:00",10.4,8.7,0.0,0.0,0,1015.3,2,5,"",89
"2020-02-22 06:49:00",10.4,8.7,0.0,0.0,0,1015.3,4,9,"",89